Tracking 29892 objects as of 21-Nov-2024
HD Live streaming from Space Station
objects crossing your sky now

UNIFORM 1

Track UNIFORM 1 now!
10-day predictions
UNIFORM 1 is classified as:


NORAD ID: 39767
Int'l Code: 2014-029B
Perigee: 597.1 km
Apogee: 605.9 km
Inclination: 97.8 °
Period: 96.6 minutes
Semi major axis: 6972 km
RCS: Unknown
Launch date: May 24, 2014
Source: Japan (JPN)
Launch site: TANEGASHIMA SPACE CENTER (TNSTA)

Uplink (MHz):
Downlink (MHz): 2228.000
Beacon (MHz):
Mode:
Call sign:
Status:

Your satellite tracking list
Your tracking list is empty




NASA's NSSDC Master Catalog

Two Line Element Set (TLE):
1 39767U 14029B   24326.11162370  .00004999  00000-0  50908-3 0  9992
2 39767  97.8165  56.0977 0006290  61.2777 298.9072 14.91155119568688
Source of the keplerian elements: AFSPC